^^
Datos históricos de la estación: Murcia-Puente Tocinos
Diario Informe para Mayo 21, 2019 Unidades:  Ingés    Métrico   Ambas
Diario Semanal Mensual Anual
  Máxima: Mínima: Promedio:
Temperatura: 58.3 °F 45.9 °F 51.6 °F
Punto de rocio: 36.5 °F 28.9 °F 33.4 °F
Humedad: 64% 37% 51%
Velocidad viento: 13mph 2.4mph 6.9mph
Racha viento: 23.5mph - -
Viento- - Oeste
Presión: 30.1 in 30 in -
Precipitación: 0 in    
 
 
Tabla de datos para Mayo 21, 2019
Hora Temperatura Punto de rocio Presión Viento Velocidad viento Racha viento Humedad Intensidad lluvia(por hora) Nubes
00:04 51.6 °F 35.1 °F 30 in ONO 8.1 mph 13.8 mph 53% 0 in
00:09 51.8 °F 35.2 °F 30 in ONO 8.8 mph 14 mph 53.3% 0 in
00:14 51.8 °F 35.6 °F 30 in ONO 9.2 mph 15 mph 54% 0 in
00:19 52 °F 35.8 °F 30 in ONO 9.2 mph 18.4 mph 54% 0 in
00:24 52.2 °F 36 °F 30 in ONO 9.2 mph 18.5 mph 54% 0 in
00:29 52.2 °F 36 °F 30 in ONO 9.2 mph 19 mph 54% 0 in
00:34 52.2 °F 36 °F 30 in ONO 9.2 mph 18 mph 54% 0 in
00:39 52.2 °F 36 °F 30 in ONO 8.9 mph 16 mph 54% 0 in
00:44 52.2 °F 36.3 °F 30 in OSO 8.7 mph 13 mph 54.5% 0 in
00:49 52.2 °F 36.5 °F 30 in SO 6.6 mph 9 mph 55% 0 in
00:54 51.8 °F 36.1 °F 30 in SSO 5.2 mph 7.4 mph 55% 0 in
00:59 51.4 °F 36 °F 30 in Sur 4.8 mph 8.1 mph 55.2% 0 in
01:04 50.9 °F 35.8 °F 30 in SSE 4.7 mph 9.2 mph 56.1% 0 in
01:09 50.5 °F 35.8 °F 30 in Sur 5.5 mph 9 mph 57% 0 in
01:14 50.2 °F 36 °F 30 in SSE 5.9 mph 10.4 mph 58% 0 in
01:19 50.4 °F 36.1 °F 30 in SSE 5.5 mph 10.7 mph 58% 0 in
01:24 50.5 °F 36.3 °F 30 in SSE 5.2 mph 11 mph 58% 0 in
01:29 50.7 °F 36.5 °F 30 in Sur 5.7 mph 10 mph 58% 0 in
01:34 50.5 °F 36.3 °F 30 in SSE 5.9 mph 7.4 mph 58% 0 in
01:39 50.5 °F 36.3 °F 30 in ESE 4.7 mph 7 mph 58% 0 in
01:44 50.5 °F 36.3 °F 30 in SE 4 mph 6 mph 58% 0 in
01:49 50.5 °F 36.3 °F 30 in Sur 3.1 mph 6.9 mph 58% 0 in
01:54 50.4 °F 36.1 °F 30 in SO 2.4 mph 8.1 mph 58% 0 in
01:59 50.4 °F 36.1 °F 30 in SSO 4.2 mph 8.5 mph 58% 0 in
02:04 50.2 °F 36.1 °F 30 in Sur 5.2 mph 9 mph 58.3% 0 in
02:09 50.2 °F 36.3 °F 30 in Sur 5.3 mph 9.2 mph 58.9% 0 in
02:14 49.8 °F 36.1 °F 30 in SSE 5.4 mph 9 mph 59% 0 in
02:19 49.8 °F 36.1 °F 30 in SE 4.5 mph 7.4 mph 59% 0 in
02:24 49.6 °F 36 °F 30 in SSE 4 mph 7.4 mph 59% 0 in
02:29 49.6 °F 36 °F 30 in SE 4.4 mph 8.1 mph 59% 0 in
02:34 49.8 °F 36.1 °F 30 in SSO 4.7 mph 8.1 mph 59% 0 in
02:39 49.8 °F 36.1 °F 30 in SO 4 mph 8 mph 59% 0 in
02:44 49.8 °F 36.1 °F 30 in OSO 3.6 mph 6.9 mph 59% 0 in
02:49 49.8 °F 36.1 °F 30 in SO 3.3 mph 7 mph 59% 0 in
02:54 49.8 °F 36 °F 30 in SO 3.1 mph 7 mph 58.6% 0 in
02:59 50 °F 35.8 °F 30 in SO 3.4 mph 7.4 mph 58% 0 in
03:04 50 °F 35.8 °F 30 in SO 3.6 mph 7 mph 58% 0 in
03:09 50 °F 35.8 °F 30 in SO 3.9 mph 6.9 mph 58% 0 in
03:14 50 °F 35.6 °F 30 in OSO 4 mph 7 mph 57.6% 0 in
03:19 50.2 °F 35.4 °F 30 in OSO 4.2 mph 9.7 mph 57% 0 in
03:24 50 °F 35.2 °F 30 in Oeste 4.3 mph 12.7 mph 57% 0 in
03:29 49.8 °F 35.2 °F 30 in OSO 5.5 mph 13 mph 57% 0 in
03:34 49.8 °F 35.2 °F 30 in OSO 6.4 mph 13.7 mph 57% 0 in
03:39 49.8 °F 35.2 °F 30 in OSO 6.3 mph 14 mph 57% 0 in
03:44 49.6 °F 35.2 °F 30 in OSO 6.2 mph 14 mph 57.4% 0 in
03:49 49.6 °F 35.4 °F 30 in OSO 5.3 mph 10 mph 58% 0 in
03:54 49.5 °F 35.4 °F 30 in OSO 4.7 mph 9 mph 58% 0 in
03:59 49.5 °F 35.2 °F 30 in OSO 4 mph 8.5 mph 58% 0 in
04:04 49.5 °F 35.2 °F 30 in OSO 3.6 mph 9 mph 58% 0 in
04:09 49.6 °F 34.9 °F 30 in OSO 4 mph 9.2 mph 57% 0 in
04:14 49.6 °F 35.1 °F 30 in Oeste 4.3 mph 9 mph 57% 0 in
04:19 49.5 °F 35.1 °F 30 in Oeste 4.3 mph 8.1 mph 57.3% 0 in
04:24 49.3 °F 35.1 °F 30 in Oeste 4.3 mph 12.7 mph 58% 0 in
04:29 49.1 °F 34.9 °F 30 in Oeste 5.3 mph 13 mph 58% 0 in
04:34 48.9 °F 34.9 °F 30 in Oeste 5.9 mph 12 mph 58% 0 in
04:39 48.9 °F 34.9 °F 30 in Oeste 6.8 mph 12.7 mph 58.4% 0 in
04:44 48.7 °F 35.1 °F 30 in Oeste 7.4 mph 13 mph 59% 0 in
04:49 48.4 °F 35.1 °F 30 in Oeste 6.8 mph 10.4 mph 60% 0 in
04:54 48 °F 34.9 °F 30 in Oeste 6.4 mph 10.4 mph 60% 0 in
04:59 47.8 °F 35.1 °F 30 in OSO 5.8 mph 10 mph 60.8% 0 in
05:04 47.7 °F 34.9 °F 30 in Oeste 5.4 mph 9.2 mph 61% 0 in
05:09 47.7 °F 34.9 °F 30 in Oeste 5.7 mph 10.4 mph 61% 0 in
05:14 47.7 °F 34.9 °F 30 in Oeste 5.9 mph 13 mph 61% 0 in
05:19 47.8 °F 35.1 °F 30 in Oeste 6.2 mph 13 mph 61% 0 in
05:24 47.8 °F 35.1 °F 30 in OSO 6.4 mph 11 mph 61% 0 in
05:29 47.7 °F 34.9 °F 30 in OSO 6.1 mph 9 mph 61% 0 in
05:34 47.5 °F 34.9 °F 30 in OSO 5.9 mph 9.2 mph 61.5% 0 in
05:39 47.5 °F 35.1 °F 30 in OSO 5.2 mph 9 mph 62% 0 in
05:44 47.5 °F 35.1 °F 30 in OSO 4.7 mph 9.2 mph 62% 0 in
05:49 47.5 °F 35.1 °F 30 in OSO 4.3 mph 9 mph 62% 0 in
05:54 47.3 °F 34.9 °F 30 in OSO 4 mph 9 mph 62% 0 in
05:59 47.1 °F 34.9 °F 30 in Oeste 4 mph 11.5 mph 62% 0 in
06:04 47.1 °F 34.9 °F 30 in Oeste 4 mph 13 mph 62% 0 in
06:09 47.1 °F 34.9 °F 30 in Oeste 4.8 mph 13 mph 62% 0 in
06:14 47.1 °F 34.9 °F 30 in Oeste 5.4 mph 13 mph 62% 0 in
06:19 47.3 °F 34.9 °F 30 in Oeste 6.3 mph 13.8 mph 62% 0 in
06:24 47.5 °F 34.9 °F 30 in Oeste 6.9 mph 14 mph 61.6% 0 in
06:29 47.3 °F 34.9 °F 30 in Oeste 7.2 mph 13 mph 62% 0 in
06:34 47.1 °F 34.9 °F 30 in Oeste 7.4 mph 15 mph 62% 0 in
06:39 47.1 °F 34.9 °F 30 in Oeste 7.4 mph 15 mph 62% 0 in
06:44 47.1 °F 34.9 °F 30 in Oeste 7.4 mph 15 mph 62% 0 in
06:49 47.1 °F 34.7 °F 30 in Oeste 8 mph 15 mph 62% 0 in
06:54 46.9 °F 34.7 °F 30 in ONO 8.5 mph 14 mph 62% 0 in
06:59 46.9 °F 34.7 °F 30 in Oeste 7.9 mph 14 mph 62% 0 in
07:04 46.9 °F 34.7 °F 30 in Oeste 7.6 mph 13.8 mph 62% 0 in
07:09 46.9 °F 34.7 °F 30 in Oeste 7.2 mph 14 mph 62% 0 in
07:14 46.9 °F 34.5 °F 30 in OSO 6.9 mph 12 mph 62% 0 in
07:19 46.9 °F 34.7 °F 30 in SO 6.3 mph 11 mph 62% 0 in
07:24 46.9 °F 34.5 °F 30 in SO 5.9 mph 9 mph 62% 0 in
07:29 46.8 °F 34.5 °F 30 in Sur 4.2 mph 7.4 mph 62% 0 in
07:34 46.8 °F 34.5 °F 30 in SSO 3.1 mph 7 mph 62.2% 0 in
07:39 46.6 °F 34.7 °F 30 in SSE 3.1 mph 5.9 mph 63% 0 in
07:44 46.2 °F 34.5 °F 30 in SSO 3.1 mph 7.4 mph 63.4% 0 in
07:49 46 °F 34.5 °F 30 in OSO 3.4 mph 9.7 mph 64% 0 in
07:54 45.9 °F 34.5 °F 30 in OSO 3.6 mph 15.6 mph 64% 0 in
07:59 46 °F 34.3 °F 30 in OSO 5.3 mph 16.3 mph 63.3% 0 in
08:04 46.2 °F 34.3 °F 30 in Oeste 6.2 mph 16 mph 63% 0 in
08:09 46.2 °F 34.3 °F 30 in Oeste 6.3 mph 13 mph 63% 0 in
08:14 46.2 °F 34.3 °F 30 in Oeste 6.4 mph 13 mph 63% 0 in
08:19 46 °F 34.2 °F 30 in Oeste 6.3 mph 13.8 mph 63% 0 in
08:24 46 °F 34.2 °F 30 in Oeste 6.2 mph 14 mph 63% 0 in
08:29 46 °F 34.2 °F 30 in Oeste 6 mph 13 mph 63% 0 in
08:34 46 °F 34.2 °F 30 in OSO 5.9 mph 10.7 mph 63% 0 in
08:39 46.2 °F 34.3 °F 30 in SO 5.5 mph 11 mph 63% 0 in
08:44 46.2 °F 34.3 °F 30 in SO 5.2 mph 11 mph 63% 0 in
08:49 46.2 °F 34.3 °F 30 in SSO 5.2 mph 9.2 mph 63% 0 in
08:54 46.2 °F 34.3 °F 30 in SO 5.2 mph 9 mph 63% 0 in
08:59 46.2 °F 34.3 °F 30 in SO 4.4 mph 8.1 mph 63% 0 in
09:04 46.4 °F 34.5 °F 30 in OSO 4 mph 10.4 mph 63% 0 in
09:09 46.8 °F 34.7 °F 30 in OSO 4.4 mph 10.7 mph 62.6% 0 in
09:14 46.9 °F 34.5 °F 30 in Oeste 4.7 mph 11.2 mph 62% 0 in
09:19 47.1 °F 34.3 °F 30 in Oeste 5.7 mph 12.7 mph 61.1% 0 in
09:24 47.1 °F 34.3 °F 30 in Oeste 6.4 mph 16.1 mph 61% 0 in
09:29 47.3 °F 34.5 °F 30 in OSO 6.3 mph 16 mph 61% 0 in
09:34 47.5 °F 34.5 °F 30.1 in OSO 6.2 mph 15 mph 60.4% 0 in
09:39 47.7 °F 34.3 °F 30.1 in OSO 6.9 mph 15.2 mph 60% 0 in
09:44 47.7 °F 34.5 °F 30.1 in OSO 7.4 mph 15 mph 60% 0 in
09:49 47.8 °F 34.7 °F 30.1 in Oeste 6.8 mph 14 mph 59.9% 0 in
09:54 48 °F 34.3 °F 30.1 in Oeste 6.4 mph 13 mph 59% 0 in
09:59 48.4 °F 34.7 °F 30.1 in OSO 6.3 mph 12 mph 59% 0 in
10:04 48.6 °F 34.7 °F 30.1 in OSO 6.2 mph 15 mph 58.6% 0 in
10:09 48.7 °F 34.5 °F 30.1 in Oeste 6.6 mph 15 mph 58% 0 in
10:14 48.9 °F 34.7 °F 30.1 in Oeste 6.9 mph 15 mph 57.9% 0 in
10:19 49.3 °F 34.7 °F 30.1 in Oeste 7.3 mph 15.2 mph 57% 0 in
10:24 49.5 °F 34.5 °F 30.1 in Oeste 7.6 mph 15 mph 56.4% 0 in
10:29 49.5 °F 34.5 °F 30.1 in ONO 8.1 mph 15 mph 56% 0 in
10:34 49.6 °F 34.7 °F 30.1 in Oeste 8.5 mph 14.5 mph 56% 0 in
10:39 49.8 °F 34.5 °F 30.1 in ONO 7.3 mph 20.4 mph 55.5% 0 in
10:44 50.2 °F 34.7 °F 30.1 in ONO 6.4 mph 21 mph 55.2% 0 in
10:49 50.2 °F 34.5 °F 30.1 in ONO 8.1 mph 22.5 mph 54.9% 0 in
10:54 50.2 °F 34.5 °F 30.1 in Oeste 9.2 mph 23 mph 55% 0 in
10:59 50.4 °F 34.9 °F 30.1 in ONO 10.1 mph 23 mph 55% 0 in
11:04 50.7 °F 35.1 °F 30.1 in ONO 10.7 mph 14 mph 55% 0 in
11:09 50.9 °F 34.9 °F 30.1 in ONO 8.4 mph 19.7 mph 54.1% 0 in
11:14 50.7 °F 34.7 °F 30.1 in ONO 6.9 mph 20 mph 54% 0 in
11:19 50.9 °F 34.9 °F 30.1 in ONO 9.1 mph 17.5 mph 54% 0 in
11:24 51.1 °F 34.7 °F 30.1 in ONO 10.7 mph 18.1 mph 53.5% 0 in
11:29 51.3 °F 34.9 °F 30.1 in Oeste 10.3 mph 18 mph 53.3% 0 in
11:34 51.4 °F 34.9 °F 30.1 in Oeste 10 mph 15 mph 53% 0 in
11:39 52 °F 35.1 °F 30.1 in Oeste 8.9 mph 15 mph 52.3% 0 in
11:44 52.2 °F 34.9 °F 30.1 in ONO 8.1 mph 17.8 mph 51.5% 0 in
11:49 52.3 °F 35.1 °F 30.1 in ONO 9.7 mph 18 mph 51.8% 0 in
11:54 52.3 °F 34.7 °F 30.1 in ONO 10.7 mph 16 mph 51% 0 in
11:59 52.5 °F 34.9 °F 30.1 in ONO 10 mph 19.2 mph 50.8% 0 in
12:04 52.5 °F 34.9 °F 30.1 in ONO 9.7 mph 20 mph 51% 0 in
12:09 52.5 °F 34.7 °F 30.1 in ONO 11.6 mph 20 mph 50.6% 0 in
12:14 53.1 °F 35.1 °F 30.1 in ONO 13 mph 20 mph 50.5% 0 in
12:19 53.4 °F 35.2 °F 30.1 in ONO 10.3 mph 16.1 mph 50% 0 in
12:24 53.6 °F 34.9 °F 30.1 in ONO 8.5 mph 17.3 mph 48.7% 0 in
12:29 53.8 °F 34.5 °F 30.1 in ONO 9.5 mph 17.3 mph 48.1% 0 in
12:34 54.1 °F 34.5 °F 30.1 in ONO 10.2 mph 17 mph 47.5% 0 in
12:39 54.1 °F 34.5 °F 30.1 in ONO 9.6 mph 17 mph 47.3% 0 in
12:44 54.3 °F 34.5 °F 30.1 in Oeste 9.2 mph 17.3 mph 46.7% 0 in
12:49 54.7 °F 34.7 °F 30.1 in Oeste 9.2 mph 17 mph 46.8% 0 in
12:54 54.9 °F 34.5 °F 30.1 in ONO 9.2 mph 16 mph 46.2% 0 in
12:59 55.2 °F 34.3 °F 30.1 in ONO 7.7 mph 15 mph 45.3% 0 in
13:04 55 °F 33.8 °F 30.1 in ONO 6.9 mph 17.3 mph 44.3% 0 in
13:09 55.2 °F 34.2 °F 30 in ONO 8.8 mph 17.3 mph 44.8% 0 in
13:14 55.4 °F 34.2 °F 30 in Oeste 10.2 mph 17.3 mph 44.4% 0 in
13:19 55.8 °F 34.2 °F 30 in ONO 9.3 mph 17 mph 43.8% 0 in
13:24 55.9 °F 33.4 °F 30 in ONO 8.7 mph 17.8 mph 42.7% 0 in
13:29 55.8 °F 33.6 °F 30 in ONO 9.9 mph 18.4 mph 42.9% 0 in
13:34 55.8 °F 33.6 °F 30 in ONO 10.7 mph 18.5 mph 43% 0 in
13:39 56.1 °F 33.6 °F 30 in ONO 10.3 mph 19 mph 42.5% 0 in
13:44 56.3 °F 33.1 °F 30 in ONO 10 mph 17 mph 41.5% 0 in
13:49 56.3 °F 33.1 °F 30 in Oeste 9.3 mph 17.3 mph 41.4% 0 in
13:54 56.5 °F 33.1 °F 30 in NO 8.7 mph 17 mph 41.1% 0 in
13:59 56.7 °F 33.1 °F 30 in NO 8.6 mph 15 mph 40.8% 0 in
14:04 56.7 °F 32.9 °F 30 in NO 8.5 mph 14.7 mph 40.5% 0 in
14:09 56.8 °F 32.7 °F 30 in NO 8.3 mph 15.2 mph 39.9% 0 in
14:14 56.8 °F 32.9 °F 30 in ONO 8.1 mph 16.3 mph 40% 0 in
14:19 56.8 °F 33.1 °F 30 in ONO 8.4 mph 17 mph 40.4% 0 in
14:24 57 °F 32.9 °F 30 in Oeste 8.7 mph 18.5 mph 40% 0 in
14:29 57 °F 32.9 °F 30 in ONO 9.9 mph 19 mph 39.9% 0 in
14:34 57.2 °F 33.1 °F 30 in ONO 10.7 mph 19.6 mph 40% 0 in
14:39 57.4 °F 33.1 °F 30 in NO 10.4 mph 20 mph 39.7% 0 in
14:44 57.6 °F 32.9 °F 30 in ONO 10.2 mph 15 mph 39% 0 in
14:49 57.6 °F 32.7 °F 30 in ONO 9.3 mph 15 mph 39% 0 in
14:54 57.6 °F 32.7 °F 30 in NNO 8.7 mph 13 mph 38.9% 0 in
14:59 57.6 °F 32.7 °F 30 in NNO 7.5 mph 13 mph 39% 0 in
15:04 57.7 °F 32.7 °F 30 in ONO 6.9 mph 17.3 mph 38.8% 0 in
15:09 57.9 °F 32.4 °F 30 in ONO 7.2 mph 17 mph 38% 0 in
15:14 57.9 °F 32.5 °F 30 in ONO 7.4 mph 15.2 mph 38.2% 0 in
15:19 57.7 °F 32.4 °F 30 in Oeste 7.5 mph 15 mph 38% 0 in
15:24 57.9 °F 32 °F 30 in Oeste 7.6 mph 23.5 mph 37.4% 0 in
15:29 57.9 °F 31.8 °F 30 in ONO 9.5 mph 23 mph 37% 0 in
15:34 57.9 °F 32.2 °F 30 in ONO 10.7 mph 21.3 mph 37.5% 0 in
15:39 58.3 °F 32 °F 30 in ONO 10.7 mph 23 mph 37.1% 0 in
15:44 58.3 °F 32.2 °F 30 in ONO 10.7 mph 23 mph 37% 0 in
15:49 58.3 °F 32.2 °F 30 in NO 11 mph 21.3 mph 37% 0 in
15:54 57.9 °F 31.8 °F 30 in NO 11.2 mph 21.3 mph 37% 0 in
15:59 57.9 °F 31.8 °F 30 in NO 11.9 mph 21 mph 37% 0 in
16:04 57.9 °F 31.8 °F 30 in ONO 12.3 mph 20 mph 37% 0 in
16:09 57.9 °F 31.8 °F 30 in ONO 11.7 mph 17.8 mph 37% 0 in
16:14 57.9 °F 32 °F 30 in ONO 11.4 mph 20.7 mph 37.4% 0 in
16:19 57.9 °F 32.4 °F 30 in ONO 11.3 mph 21 mph 38% 0 in
16:24 57.7 °F 32.4 °F 30 in ONO 11.2 mph 20.7 mph 38% 0 in
16:29 57.7 °F 32.4 °F 30 in ONO 10.6 mph 21 mph 38% 0 in
16:34 57.9 °F 32.2 °F 30 in ONO 10.2 mph 20.8 mph 37.8% 0 in
16:39 57.9 °F 32.4 °F 30 in ONO 10.8 mph 21 mph 37.9% 0 in
16:44 57.7 °F 31.8 °F 30 in NO 11.2 mph 19 mph 37.1% 0 in
16:49 57.6 °F 31.6 °F 30 in ONO 11.6 mph 21.3 mph 37.2% 0 in
16:54 57.6 °F 31.5 °F 30 in ONO 11.8 mph 21 mph 37% 0 in
16:59 57.6 °F 31.6 °F 30 in NO 11.4 mph 21 mph 37.2% 0 in
17:04 57.4 °F 31.3 °F 30 in ONO 11.2 mph 22.5 mph 37% 0 in
17:09 57.4 °F 31.6 °F 30 in ONO 11.6 mph 23 mph 37.4% 0 in
17:14 57.4 °F 31.3 °F 30 in ONO 11.8 mph 22 mph 37.1% 0 in
17:19 57.4 °F 31.3 °F 30 in ONO 11.4 mph 18.5 mph 37.1% 0 in
17:24 57.4 °F 31.3 °F 30 in ONO 11.2 mph 19 mph 37% 0 in
17:29 57.4 °F 31.3 °F 30 in ONO 10.6 mph 17.3 mph 37% 0 in
17:34 57.4 °F 31.6 °F 30 in ONO 10.2 mph 18.4 mph 37.7% 0 in
17:39 57.2 °F 31.8 °F 30 in ONO 9.3 mph 18 mph 38% 0 in
17:44 57 °F 31.6 °F 30 in ONO 8.7 mph 15 mph 38% 0 in
17:49 57 °F 31.6 °F 30 in ONO 8.6 mph 16.1 mph 38% 0 in
17:54 56.8 °F 31.6 °F 30 in ONO 8.5 mph 16 mph 38.3% 0 in
17:59 56.7 °F 32 °F 30 in ONO 8.9 mph 15 mph 39% 0 in
18:04 56.7 °F 32 °F 30 in ONO 9.2 mph 15 mph 39% 0 in
18:09 56.5 °F 31.8 °F 30 in ONO 8.9 mph 15 mph 39% 0 in
18:14 56.1 °F 31.6 °F 30 in ONO 8.7 mph 13 mph 39.1% 0 in
18:19 56.1 °F 32 °F 30 in ONO 8 mph 13 mph 39.9% 0 in
18:24 55.9 °F 31.8 °F 30 in Oeste 7.6 mph 13.7 mph 40% 0 in
18:29 55.8 °F 31.8 °F 30 in Oeste 7.5 mph 14 mph 40% 0 in
18:34 55.6 °F 31.8 °F 30 in Oeste 7.4 mph 14 mph 40.5% 0 in
18:39 55.4 °F 32 °F 30 in Oeste 7.1 mph 17.3 mph 40.8% 0 in
18:44 55.2 °F 32 °F 30 in ONO 6.9 mph 17 mph 41% 0 in
18:49 55 °F 31.8 °F 30 in ONO 6.6 mph 12 mph 41% 0 in
18:54 54.9 °F 32 °F 30 in ONO 6.4 mph 10 mph 41.6% 0 in
18:59 54.7 °F 32 °F 30 in ONO 6.3 mph 10.2 mph 42% 0 in
19:04 54.3 °F 31.6 °F 30 in ONO 6.2 mph 10.4 mph 42% 0 in
19:09 54.1 °F 32 °F 30 in ONO 6 mph 10 mph 42.7% 0 in
19:14 54.1 °F 32.2 °F 30 in ONO 5.9 mph 9.2 mph 43% 0 in
19:19 54 °F 32 °F 30 in Oeste 5.6 mph 8.5 mph 43% 0 in
19:24 53.8 °F 32 °F 30 in Oeste 5.4 mph 9 mph 43.2% 0 in
19:29 53.6 °F 32.2 °F 30 in OSO 4.8 mph 8 mph 44% 0 in
19:34 53.4 °F 32 °F 30 in OSO 4.3 mph 6 mph 44% 0 in
19:39 53.2 °F 32 °F 30 in SO 3.9 mph 8.1 mph 44% 0 in
19:44 53.4 °F 32 °F 30 in SO 3.6 mph 8.7 mph 43.9% 0 in
19:49 53.4 °F 31.6 °F 30 in SO 4.9 mph 9.2 mph 43.2% 0 in
19:54 53.4 °F 31.5 °F 30 in SO 5.9 mph 10.4 mph 43% 0 in
19:59 53.4 °F 31.5 °F 30 in SO 5.6 mph 10 mph 43.1% 0 in
20:04 53.2 °F 31.3 °F 30 in OSO 5.4 mph 10 mph 43% 0 in
20:09 53.2 °F 31.8 °F 30 in SO 5.3 mph 9 mph 43.9% 0 in
20:14 53.1 °F 31.6 °F 30 in OSO 5.2 mph 9.7 mph 44% 0 in
20:19 52.7 °F 31.5 °F 30 in OSO 5.2 mph 10 mph 44% 0 in
20:24 52.5 °F 31.5 °F 30 in OSO 5.2 mph 9 mph 44.6% 0 in
20:29 52.3 °F 31.6 °F 30 in SO 5.2 mph 10.4 mph 45% 0 in
20:34 52.2 °F 31.5 °F 30.1 in OSO 5.2 mph 10 mph 45% 0 in
20:39 52.2 °F 31.6 °F 30.1 in SO 5.9 mph 10.7 mph 45.5% 0 in
20:44 52 °F 31.8 °F 30.1 in SO 6.4 mph 11 mph 46% 0 in
20:49 52 °F 31.8 °F 30.1 in SO 6.1 mph 10.4 mph 46% 0 in
20:54 51.8 °F 31.6 °F 30.1 in SSO 5.9 mph 9.2 mph 46% 0 in
20:59 51.8 °F 31.6 °F 30.1 in SSO 5.5 mph 9.2 mph 46% 0 in
21:04 51.6 °F 32 °F 30.1 in SSO 5.2 mph 9 mph 47% 0 in
21:09 51.4 °F 32.2 °F 30.1 in SSO 3.9 mph 6 mph 47.7% 0 in
21:14 50.9 °F 32 °F 30.1 in Sur 3.1 mph 6.2 mph 48.1% 0 in
21:19 50.5 °F 32 °F 30.1 in SSO 3.4 mph 6.9 mph 49% 0 in
21:24 50.2 °F 31.8 °F 30.1 in Sur 3.6 mph 7 mph 49% 0 in
21:29 50.2 °F 31.8 °F 30.1 in SSO 3.6 mph 7 mph 49.2% 0 in
21:34 50 °F 31.6 °F 30.1 in SSO 3.6 mph 6 mph 49.2% 0 in
21:39 50 °F 31.6 °F 30.1 in SO 3.6 mph 5.2 mph 49% 0 in
21:44 50 °F 31.6 °F 30.1 in SSO 3.6 mph 5.8 mph 49% 0 in
21:49 50.2 °F 31.6 °F 30.1 in OSO 3.3 mph 6 mph 48.9% 0 in
21:54 50.2 °F 31.3 °F 30.1 in OSO 3.1 mph 7.4 mph 48.2% 0 in
21:59 50.4 °F 30.7 °F 30.1 in Oeste 3 mph 9.2 mph 46.6% 0 in
22:04 50.5 °F 30.4 °F 30.1 in Oeste 2.9 mph 9.7 mph 45.9% 0 in
22:09 50.7 °F 30.2 °F 30.1 in Oeste 4.4 mph 10 mph 45% 0 in
22:14 50.9 °F 30.2 °F 30.1 in ONO 5.4 mph 9.7 mph 44.6% 0 in
22:19 51.1 °F 29.8 °F 30.1 in ONO 5.4 mph 10 mph 44% 0 in
22:24 51.1 °F 29.8 °F 30.1 in ONO 5.4 mph 10.4 mph 44% 0 in
22:29 50.9 °F 29.7 °F 30.1 in Oeste 5.4 mph 10 mph 44% 0 in
22:34 50.7 °F 29.8 °F 30.1 in Oeste 5.4 mph 8 mph 44.4% 0 in
22:39 50.5 °F 30 °F 30.1 in Oeste 5.3 mph 10.7 mph 45% 0 in
22:44 50.4 °F 29.8 °F 30.1 in Oeste 5.2 mph 11 mph 45% 0 in
22:49 50.4 °F 29.8 °F 30.1 in Oeste 5.3 mph 10.7 mph 45% 0 in
22:54 50.2 °F 29.7 °F 30.1 in OSO 5.4 mph 11 mph 45% 0 in
22:59 50.2 °F 29.5 °F 30.1 in Oeste 5.9 mph 15 mph 45% 0 in
23:04 49.8 °F 29.3 °F 30.1 in Oeste 6.2 mph 15 mph 45% 0 in
23:09 49.6 °F 29.3 °F 30.1 in Oeste 5.6 mph 8.5 mph 45.1% 0 in
23:14 49.6 °F 29.1 °F 30.1 in Oeste 5.2 mph 13.5 mph 45.2% 0 in
23:19 49.5 °F 29.3 °F 30.1 in ONO 5.9 mph 13 mph 45.6% 0 in
23:24 49.5 °F 29.5 °F 30.1 in Oeste 6.4 mph 12 mph 46% 0 in
23:29 49.5 °F 29.3 °F 30.1 in ONO 6.1 mph 11.5 mph 45.7% 0 in
23:34 49.5 °F 28.9 °F 30.1 in Oeste 5.9 mph 15 mph 45% 0 in
23:39 49.5 °F 29.1 °F 30.1 in Oeste 6.5 mph 15 mph 45.4% 0 in
23:44 49.5 °F 29.5 °F 30.1 in Oeste 6.9 mph 13 mph 46% 0 in
23:49 49.1 °F 29.3 °F 30.1 in Oeste 6.3 mph 12 mph 46% 0 in
23:54 48.9 °F 28.9 °F 30.1 in Oeste 5.9 mph 12 mph 46% 0 in
23:59 48.9 °F 29.1 °F 30.1 in Oeste 5.9 mph 10.7 mph 46.2% 0 in
Murcia-Puente Tocinos, España
Compliments of Weather Underground - 3 mb

La estación de MeteoMurcia.com, publica sus datos en los siguientes proyectos:

Weather Underground PWS IMURCIAP2 Meteoclimatic www.awekas.at

W3Counter
Web Analytics